Notices

What's New in latest Release from April 7th, 2021:

- Updated Glossary, including Speed of Maximum Gust, and Total Hourly Precipitation

- Updated national and regional climate services offices contacts and prices information

- Addition of station inventory lists for 1981-2010, 1971-2000, and 1961-1990 Normals.

If you haven't already, please take our survey and provide feedback about our website: https://eccc.sondage-survey.ca/f/LanguageSelection.aspx?s=442ca660-fcf1-47c0-95a9-59707d6fd709

Hourly Data Report for April 18, 2021

CORNER BROOK
NEWFOUNDLAND
Current Station Operator: ECCC - MSC

48°56'00.000" N
57°55'00.000" W
151.80 m
8401298
71973
WKB

Download Data

Hourly Data (April 2021)
Hourly Data Report for April 18, 2021
TIME
LST
Temp Definition
°C
Dew Point Definition
°C
Rel Hum Definition
%
Precip. Amount Definition
mm

Wind Dir Definition
10's deg

Wind Spd Definition
km/h
Visibility Definition
km
Stn Press Definition
kPa
Hmdx Definition


Wind Chill Definition


Weather Definition


00:30 1.9 -1.6 78 0.0 8 15   99.44     LegendNANA
01:30 1.1 -1.0 86 0.0 8 13   99.38     LegendNANA
02:30 0.8 -0.6 90 0.9 6 5   99.31     LegendNANA
03:30 0.8 -0.5 91 0.0 8 13   99.24     LegendNANA
04:30 1.0 -0.3 91 0.0 9 10   99.17     LegendNANA
05:30 0.9 -0.3 91 0.8 7 13   99.14     LegendNANA
06:30 1.1 -0.1 91 1.1 7 8   99.12     LegendNANA
07:30 2.0 0.4 89 1.1 7 9   99.03     LegendNANA
08:30 2.2 0.7 90 0.0 8 14   98.94     LegendNANA
09:30 4.1 2.0 86 0.0 9 14   98.87     LegendNANA
10:30 3.9 1.9 87 0.0 7 21   98.76     LegendNANA
11:30 3.8 2.0 88 0.0 7 16   98.65     LegendNANA
12:30 4.5 2.6 88 0.0 7 19   98.56     LegendNANA
13:30 4.6 2.8 88 0.0 7 22   98.50     LegendNANA
14:30 5.2 3.5 89 0.0 9 10   98.40     LegendNANA
15:30 5.1 3.2 88 0.0 8 17   98.32     LegendNANA
16:30 4.5 3.0 90 0.0 9 19   98.28     LegendNANA
17:30 3.8 2.5 91 0.9 7 19   98.27     LegendNANA
18:30 3.5 2.3 92 0.0 8 21   98.24     LegendNANA
19:30 3.1 2.0 93 0.6 8 17   98.22     LegendNANA
20:30 2.8 1.8 93 0.0 7 8   98.27     LegendNANA
21:30 2.6 1.6 93 0.0 7 14   98.24     LegendNANA
22:30 2.3 1.3 93 0.0 5 12   98.17     LegendNANA
23:30 2.1 1.2 93 0.8 4 14   98.10     LegendNANA

Notes on Data Quality.

Legend

  • E = Estimated
  • M = Missing
  • NA = Not Available*
  • [empty] = Indicates an unobserved value
Date modified: